When you browse on this site, cookies collect data to enhance your experience and personalize the content and advertising you see.
Visit our Privacy Policy to learn more. By continuing to use the site, you agree to this use of cookies and data.
  • In Netherlands
  • List of Countries
  • For 7 days
  • Water Temperature
  • Weather Map
  • Weather Widgets
  • user-avatar
    Login

    Hourly Weather Malanje

    Today, 28 February, Friday

    Time Temperature Precipitation Wind Pressure Humidity
    00:00 +20°C° 0 mm 1 mps 664 mmHg 91%
    01:00 +20°C° 0 mm 1 mps 664 mmHg 92%
    02:00 +20°C° 0 mm 1 mps 664 mmHg 93%
    03:00 +20°C° 0 mm 1 mps 664 mmHg 94%
    04:00 +19°C° 0 mm 1 mps 663 mmHg 96%
    05:00 +18°C° 0 mm 0 mps 664 mmHg 95%
    06:00 +18°C° 0 mm 0 mps 665 mmHg 94%
    07:00 +19°C° 0 mm 0 mps 665 mmHg 93%
    08:00 +21°C° 0 mm 0 mps 666 mmHg 84%
    09:00 +25°C° 0 mm 1 mps 666 mmHg 74%
    10:00 +27°C° 0 mm 1 mps 667 mmHg 65%
    11:00 +28°C° 0 mm 1 mps 667 mmHg 60%
    12:00 +29°C° 0 mm 2 mps 666 mmHg 55%
    13:00 +30°C° 0 mm 2 mps 666 mmHg 50%
    14:00 +29°C° 0 mm 2 mps 665 mmHg 54%
    15:00 +29°C° 0 mm 2 mps 664 mmHg 58%
    16:00 +28°C° 0 mm 2 mps 663 mmHg 62%
    17:00 +26°C° 0 mm 2 mps 664 mmHg 68%
    18:00 +24°C° 0 mm 2 mps 664 mmHg 73%
    19:00 +22°C° 0 mm 1 mps 664 mmHg 79%
    20:00 +22°C° 0 mm 1 mps 664 mmHg 81%
    21:00 +21°C° 0 mm 1 mps 664 mmHg 84%
    22:00 +20°C° 0 mm 1 mps 665 mmHg 86%
    23:00 +20°C° 0 mm 1 mps 664 mmHg 86%

    Tomorrow, 29 February, Saturday

    Time Temperature Precipitation Wind Pressure Humidity
    00:00 +20°C° 0 mm 1 mps 664 mmHg 87%
    01:00 +19°C° 0 mm 1 mps 664 mmHg 87%
    02:00 +20°C° 0 mm 1 mps 664 mmHg 87%
    03:00 +20°C° 0 mm 1 mps 664 mmHg 87%
    04:00 +19°C° 0 mm 2 mps 664 mmHg 88%
    05:00 +20°C° 0 mm 1 mps 664 mmHg 89%
    06:00 +20°C° 0 mm 1 mps 665 mmHg 91%
    07:00 +20°C° 0 mm 1 mps 665 mmHg 93%
    08:00 +21°C° 0 mm 1 mps 666 mmHg 91%
    09:00 +21°C° 0 mm 1 mps 666 mmHg 89%
    10:00 +22°C° 0 mm 1 mps 667 mmHg 87%
    11:00 +23°C° 0 mm 2 mps 666 mmHg 82%
    12:00 +24°C° 0 mm 2 mps 666 mmHg 76%
    13:00 +26°C° 0 mm 2 mps 666 mmHg 71%
    14:00 +25°C° 0.2 mm 2 mps 666 mmHg 74%
    15:00 +25°C° 0.2 mm 2 mps 666 mmHg 78%
    16:00 +25°C° 0.2 mm 1 mps 665 mmHg 82%
    17:00 +23°C° 0.2 mm 2 mps 666 mmHg 86%
    18:00 +21°C° 0.2 mm 2 mps 666 mmHg 90%
    19:00 +20°C° 0.2 mm 2 mps 666 mmHg 95%
    20:00 +19°C° 0 mm 2 mps 666 mmHg 96%
    21:00 +19°C° 0 mm 2 mps 666 mmHg 97%
    22:00 +19°C° 0 mm 1 mps 666 mmHg 97%
    23:00 +19°C° 0 mm 1 mps 666 mmHg 98%

    Day after tomorrow, 1 March, Sunday

    Time Temperature Precipitation Wind Pressure Humidity
    00:00 +18°C° 0 mm 2 mps 665 mmHg 98%
    01:00 +18°C° 0 mm 2 mps 665 mmHg 98%
    02:00 +18°C° 0 mm 2 mps 665 mmHg 98%
    03:00 +18°C° 0 mm 2 mps 665 mmHg 98%
    04:00 +19°C° 0 mm 1 mps 665 mmHg 98%
    05:00 +19°C° 0 mm 1 mps 665 mmHg 97%
    06:00 +19°C° 0 mm 1 mps 666 mmHg 96%
    07:00 +19°C° 0 mm 1 mps 666 mmHg 95%
    08:00 +20°C° 0 mm 1 mps 667 mmHg 91%
    09:00 +21°C° 0 mm 1 mps 667 mmHg 87%
    10:00 +21°C° 0 mm 2 mps 667 mmHg 83%
    11:00 +23°C° 0 mm 1 mps 667 mmHg 81%
    12:00 +23°C° 0 mm 1 mps 666 mmHg 78%
    13:00 +23°C° 0 mm 1 mps 666 mmHg 76%
    14:00 +24°C° 0 mm 1 mps 665 mmHg 73%
    15:00 +25°C° 0 mm 1 mps 665 mmHg 69%
    16:00 +26°C° 0 mm 1 mps 664 mmHg 65%
    17:00 +24°C° 0 mm 1 mps 664 mmHg 72%
    18:00 +23°C° 0 mm 1 mps 664 mmHg 79%
    19:00 +21°C° 0 mm 1 mps 664 mmHg 86%
    20:00 +21°C° 0 mm 1 mps 665 mmHg 88%
    21:00 +20°C° 0 mm 1 mps 665 mmHg 89%
    22:00 +20°C° 0 mm 1 mps 665 mmHg 91%
    23:00 +19°C° 0 mm 1 mps 665 mmHg 92%

    2 March, Monday

    Time Temperature Precipitation Wind Pressure Humidity
    00:00 +19°C° 0 mm 1 mps 665 mmHg 94%
    01:00 +19°C° 0 mm 1 mps 664 mmHg 95%
    02:00 +19°C° 0 mm 1 mps 664 mmHg 95%
    03:00 +18°C° 0 mm 1 mps 664 mmHg 94%
    04:00 +18°C° 0 mm 1 mps 664 mmHg 94%
    05:00 +18°C° 0 mm 1 mps 664 mmHg 90%
    06:00 +19°C° 0 mm 1 mps 665 mmHg 87%
    07:00 +19°C° 0 mm 1 mps 665 mmHg 83%
    08:00 +20°C° 0 mm 2 mps 666 mmHg 78%
    09:00 +23°C° 0 mm 2 mps 666 mmHg 72%
    10:00 +25°C° 0 mm 2 mps 667 mmHg 67%
    11:00 +27°C° 0 mm 2 mps 667 mmHg 62%
    12:00 +28°C° 0 mm 2 mps 666 mmHg 57%
    13:00 +30°C° 0 mm 1 mps 666 mmHg 51%
    14:00 +30°C° 0 mm 1 mps 666 mmHg 52%
    15:00 +29°C° 0 mm 1 mps 665 mmHg 53%
    16:00 +27°C° 0 mm 0 mps 665 mmHg 54%
    17:00 +27°C° 0 mm 1 mps 665 mmHg 61%
    18:00 +25°C° 0 mm 1 mps 665 mmHg 69%
    19:00 +22°C° 0 mm 1 mps 664 mmHg 77%
    20:00 +22°C° 0.1 mm 1 mps 665 mmHg 81%
    21:00 +21°C° 0.1 mm 1 mps 665 mmHg 85%
    22:00 +20°C° 0.1 mm 1 mps 665 mmHg 90%
    23:00 +18°C° 0 mm 0 mps 665 mmHg 91%

    3 March, Tuesday

    Time Temperature Precipitation Wind Pressure Humidity
    00:00 +18°C° 0 mm 0 mps 665 mmHg 91%
    01:00 +17°C° 0 mm 0 mps 665 mmHg 92%
    02:00 +17°C° 0 mm 0 mps 664 mmHg 93%
    03:00 +17°C° 0 mm 0 mps 664 mmHg 93%
    04:00 +17°C° 0 mm 0 mps 664 mmHg 94%
    05:00 +17°C° 0 mm 0 mps 665 mmHg 93%
    06:00 +19°C° 0 mm 1 mps 665 mmHg 92%
    07:00 +20°C° 0 mm 1 mps 666 mmHg 91%
    08:00 +22°C° 0 mm 1 mps 666 mmHg 82%
    09:00 +25°C° 0 mm 1 mps 667 mmHg 74%
    10:00 +27°C° 0 mm 1 mps 668 mmHg 65%
    11:00 +29°C° 0 mm 1 mps 668 mmHg 60%
    12:00 +29°C° 0 mm 0 mps 667 mmHg 56%
    13:00 +31°C° 0 mm 0 mps 667 mmHg 51%
    14:00 +30°C° 0.1 mm 0 mps 666 mmHg 54%
    15:00 +29°C° 0.1 mm 0 mps 665 mmHg 57%
    16:00 +30°C° 0.1 mm 1 mps 665 mmHg 60%
    17:00 +27°C° 0.2 mm 1 mps 664 mmHg 68%
    18:00 +25°C° 0.2 mm 1 mps 664 mmHg 76%
    19:00 +23°C° 0.2 mm 1 mps 664 mmHg 83%
    20:00 +22°C° 0 mm 1 mps 664 mmHg 86%
    21:00 +21°C° 0 mm 1 mps 665 mmHg 88%
    22:00 +19°C° 0 mm 0 mps 665 mmHg 91%
    23:00 +18°C° 0 mm 0 mps 665 mmHg 92%

    4 March, Wednesday

    Time Temperature Precipitation Wind Pressure Humidity
    00:00 +18°C° 0 mm 0 mps 665 mmHg 93%
    01:00 +18°C° 0 mm 0 mps 665 mmHg 93%
    02:00 +18°C° 0 mm 0 mps 665 mmHg 94%
    03:00 +17°C° 0 mm 0 mps 665 mmHg 95%
    04:00 +19°C° 0 mm 1 mps 664 mmHg 95%
    05:00 +18°C° 0 mm 0 mps 665 mmHg 95%
    06:00 +18°C° 0 mm 0 mps 666 mmHg 94%
    07:00 +19°C° 0 mm 0 mps 666 mmHg 93%
    08:00 +22°C° 0 mm 0 mps 667 mmHg 83%
    09:00 +25°C° 0 mm 0 mps 668 mmHg 74%
    10:00 +28°C° 0 mm 0 mps 668 mmHg 65%
    11:00 +29°C° 0 mm 0 mps 668 mmHg 59%
    12:00 +31°C° 0 mm 1 mps 667 mmHg 53%
    13:00 +32°C° 0 mm 1 mps 666 mmHg 47%
    14:00 +31°C° 0 mm 1 mps 666 mmHg 49%
    15:00 +31°C° 0 mm 1 mps 665 mmHg 51%
    16:00 +30°C° 0 mm 1 mps 665 mmHg 53%
    17:00 +28°C° 0.1 mm 1 mps 665 mmHg 63%
    18:00 +25°C° 0.1 mm 1 mps 664 mmHg 72%
    19:00 +23°C° 0.1 mm 1 mps 664 mmHg 81%
    20:00 +22°C° 0 mm 1 mps 664 mmHg 84%
    21:00 +19°C° 0 mm 0 mps 665 mmHg 87%
    22:00 +19°C° 0 mm 0 mps 665 mmHg 89%
    23:00 +18°C° 0 mm 0 mps 665 mmHg 91%
    Show more